Kiana, AK

4:43 PM AKDT on May 25, 2017 (GMT -0800)
Baker Memorial

Weather History for PAIK - January, 2013

Change the Weather History Date:

Tuesday, January 15, 2013

  Actual Average (PASK) Record (PASK)
Temperature  
Mean Temperature 8 °F -  
Max Temperature 3 °F 2 °F 33 °F (1997)
Min Temperature 5 °F -6 °F -36 °F (2006)
Degree Days  
Heating Degree Days 56    
Moisture  
Dew Point 4 °F    
Average Humidity 86    
Maximum Humidity 92    
Minimum Humidity 80    
Precipitation  
Precipitation 0.00 in - - ()
Sea Level Pressure  
Sea Level Pressure 30.04 in    
Wind  
Wind Speed 6 mph (SE)    
Max Wind Speed 13 mph    
Max Gust Speed 20 mph    
Visibility 6 miles    
Events Snow    
Averages and records for this station are not official NWS values.
T = Trace of Precipitation, MM = Missing Value Source: NWS Daily Summary

Daily Weather History Graph

Daily Weather History Graph

Search for Another Location

Airport or City:

Trip Planner

Search our weather history database for the weather conditions in past years. The results will help you decide how hot, cold, wet, or windy it might be!

Date:

Astronomy

Jan. 15, 2013 Rise Set
Actual Time 11:49 AM AKST 3:53 PM AKST
Civil Twilight 10:23 AM AKST 5:20 PM AKST
Nautical Twilight 9:09 AM AKST 6:34 PM AKST
Astronomical Twilight 8:04 AM AKST 7:39 PM AKST
Moon 11:14 AM AKST (1/15) 11:58 PM AKST (1/15)
Length of Visible Light 6h 56m
Length of Day
4h 04m
Waxing Crescent, 20% of the Moon is Illuminated
Jan 15
Waxing Crescent
Jan 18
First Quarter
Jan 26
Full
Feb 3
Last Quarter
Feb 9
New

Hourly Weather History & Observations

Time (AKST) Temp. Windchill Dew Point Humidity Pressure Visibility Wind Dir Wind Speed Gust Speed Precip Events Conditions
12:01 AM 12.0 °F -1.3 °F 7.0 °F 80% 29.89 in 9.0 mi SSW 10.4 mph 19.6 mph 0.00 in Snow Light Snow
1:01 AM 10.9 °F -4.1 °F 7.0 °F 84% 29.93 in 9.0 mi South 12.7 mph 17.3 mph 0.00 in Snow Light Snow
2:01 AM 10.9 °F -0.8 °F 6.1 °F 81% 29.96 in 10.0 mi SSW 8.1 mph - 0.00 in   Overcast
3:01 AM 10.9 °F 0.2 °F 6.1 °F 81% 29.98 in 10.0 mi South 6.9 mph - 0.00 in   Overcast
3:56 AM 10.4 °F -1.5 °F 6.8 °F 85% 29.85 in 8.0 mi South 8.1 mph - 0.00 in Snow Light Snow
4:01 AM 10.0 °F 0.4 °F 6.1 °F 84% 29.99 in 8.0 mi South 5.8 mph - 0.00 in Snow Light Snow
4:31 AM 10.4 °F 0.8 °F 6.8 °F 85% 29.86 in 9.0 mi South 5.8 mph - 0.00 in   Overcast
5:01 AM 9.0 °F -2.2 °F 5.0 °F 84% 30.01 in 10.0 mi South 6.9 mph - 0.00 in Snow Light Snow
5:24 AM 8.6 °F -2.6 °F 6.8 °F 92% 29.88 in 4.0 mi South 6.9 mph - 0.00 in Snow Light Snow
6:01 AM 8.6 °F 2.0 °F 5.0 °F 85% 29.89 in 4.0 mi Variable 3.5 mph - 0.00 in Snow Light Snow
6:08 AM 8.6 °F 0.1 °F 5.0 °F 85% 29.89 in 4.0 mi South 4.6 mph - 0.00 in Snow Light Snow
6:15 AM 9.0 °F -0.9 °F 5.0 °F 84% 30.04 in 3.0 mi South 5.8 mph - 0.00 in Snow Light Snow
7:01 AM 8.6 °F 2.0 °F 5.0 °F 85% 29.91 in 7.0 mi South 3.5 mph - 0.00 in Snow Light Snow
7:18 AM 8.6 °F 2.0 °F 5.0 °F 85% 29.92 in 6.0 mi South 3.5 mph - 0.00 in Snow Light Snow
8:01 AM 7.0 °F - 3.9 °F 87% 30.07 in 9.0 mi Calm Calm - 0.00 in Snow Light Snow
8:11 AM 6.8 °F - 3.2 °F 85% 29.94 in 9.0 mi Calm Calm - 0.00 in Snow Light Snow
9:01 AM 6.1 °F -0.9 °F 3.9 °F 91% 30.09 in 5.0 mi ESE 3.5 mph - 0.00 in Snow Light Snow
9:37 AM 6.8 °F - 3.2 °F 85% 29.96 in 5.0 mi Calm Calm - 0.00 in Snow Light Snow
9:57 AM 5.0 °F - 1.4 °F 85% 29.97 in 9.0 mi Calm Calm - 0.00 in Snow Light Snow
10:01 AM 5.0 °F - 3.0 °F 92% 30.10 in 9.0 mi Calm Calm - 0.00 in Snow Light Snow
10:41 AM 6.8 °F -2.0 °F 3.2 °F 85% 29.97 in 6.0 mi NE 4.6 mph - 0.00 in Snow Light Snow
10:58 AM 6.8 °F -0.1 °F 3.2 °F 85% 29.97 in 2.5 mi NE 3.5 mph - 0.00 in Snow Light Snow
11:01 AM 6.1 °F -0.9 °F 3.9 °F 91% 30.11 in 2.5 mi NE 3.5 mph - 0.00 in Snow Light Snow
11:16 AM 6.8 °F -2.0 °F 3.2 °F 85% 29.98 in 1.8 mi NE 4.6 mph - 0.00 in Snow Light Snow
11:26 AM 6.8 °F - 3.2 °F 85% 29.98 in 3.0 mi Calm Calm - 0.00 in Snow Light Snow
12:01 PM 5.0 °F - 3.0 °F 92% 30.13 in 6.0 mi Calm Calm - 0.00 in Snow Light Snow
12:16 PM 6.8 °F -0.1 °F 3.2 °F 85% 29.99 in 2.0 mi East 3.5 mph - 0.00 in Snow Light Snow
12:27 PM 5.0 °F -2.1 °F 3.2 °F 92% 29.99 in 6.0 mi ENE 3.5 mph - 0.00 in Snow Light Snow
12:34 PM 5.0 °F -4.1 °F 3.2 °F 92% 29.99 in 6.0 mi East 4.6 mph - 0.00 in Snow Light Snow
1:01 PM 6.1 °F -0.9 °F 3.0 °F 87% 30.14 in 6.0 mi ESE 3.5 mph - 0.00 in Snow Light Snow
1:56 PM 6.8 °F -0.1 °F 3.2 °F 85% 30.02 in 2.0 mi East 3.5 mph - 0.00 in Snow Light Snow
2:01 PM 7.0 °F 0.1 °F 3.9 °F 87% 30.15 in 2.5 mi East 3.5 mph - 0.00 in Snow Light Snow
2:10 PM 6.8 °F -0.1 °F 3.2 °F 85% 30.02 in 1.8 mi East 3.5 mph - 0.00 in Snow Light Snow
2:41 PM 6.8 °F -0.1 °F 3.2 °F 85% 30.02 in 3.0 mi East 3.5 mph - 0.00 in Snow Light Snow
3:01 PM 6.8 °F - 3.2 °F 85% 30.03 in 5.0 mi Calm Calm - 0.00 in Snow Light Snow
4:01 PM 6.1 °F -0.9 °F 3.9 °F 91% 30.17 in 8.0 mi Variable 3.5 mph - 0.00 in Snow Light Snow
4:12 PM 6.8 °F -0.1 °F 3.2 °F 85% 30.04 in 8.0 mi East 3.5 mph - 0.00 in Snow Light Snow
4:37 PM 6.8 °F -0.1 °F 3.2 °F 85% 30.05 in 8.0 mi Variable 3.5 mph - 0.00 in Snow Light Snow
5:01 PM 5.0 °F -5.6 °F 3.2 °F 92% 30.05 in 8.0 mi East 5.8 mph - 0.00 in Snow Light Snow
5:09 PM 5.0 °F -2.1 °F 3.0 °F 92% 30.19 in 9.0 mi East 3.5 mph - 0.00 in Snow Light Snow
6:01 PM 6.1 °F - 3.0 °F 87% 30.20 in 9.0 mi Calm Calm - 0.00 in Snow Light Snow
7:01 PM 6.1 °F -4.3 °F 3.0 °F 87% 30.21 in 9.0 mi East 5.8 mph - 0.00 in Snow Light Snow
7:14 PM 6.8 °F -3.5 °F 3.2 °F 85% 30.07 in 9.0 mi East 5.8 mph - 0.00 in Snow Light Snow
8:01 PM 6.1 °F -0.9 °F 3.0 °F 87% 30.22 in 6.0 mi East 3.5 mph - 0.00 in Snow Light Snow
9:01 PM 6.1 °F -4.3 °F 3.0 °F 87% 30.24 in 9.0 mi East 5.8 mph - 0.00 in Snow Light Snow
9:47 PM 6.8 °F -0.1 °F 3.2 °F 85% 30.11 in 9.0 mi ESE 3.5 mph - 0.00 in Snow Light Snow
10:01 PM 6.1 °F -0.9 °F 3.0 °F 87% 30.25 in 9.0 mi ESE 3.5 mph - 0.00 in Snow Light Snow
11:01 PM 6.1 °F -4.3 °F 1.9 °F 83% 30.27 in 9.0 mi SSW 5.8 mph - 0.00 in Snow Light Snow
11:28 PM 5.0 °F -5.6 °F 1.4 °F 85% 30.13 in 7.0 mi SSW 5.8 mph - 0.00 in Snow Light Snow